Regional Weather Roundup
Issued by NWS

Home | Current Version | Previous Version | Graphics & Text | Print | Product List | Glossary On
Versions: 1 2 3 4 5 6 7 8 9 10 11 12 13 14 15 16 17 18 19 20 21 22 23 24 25 26 27 28 29 30 31 32 33 34 35 36 37 38 39 40 41 42 43 44 45 46 47 48 49 50
000
ASUS43 KDTX 192210
RWRMI
MICHIGAN HOURLY REGIONAL WEATHER ROUNDUP
NATIONAL WEATHER SERVICE DETROIT/PONTIAC MI
ISSUED BY NATIONAL WEATHER SERVICE GRAND RAPIDS MI
600 PM EDT SAT AUG 19 2017

NOTE: "FAIR" INDICATES FEW OR NO CLOUDS BELOW 12,000 FEET WITH NO
SIGNIFICANT WEATHER AND/OR OBSTRUCTION TO VISIBILITY.

MIZ047>049-052>055-059>063-066>070-074>076-081>083-192300-
SOUTHEAST LOWER MICHIGAN

CITY           SKY/WX    TMP DP  RH WIND       PRES   REMARKS
ADRIAN         MOSUNNY   80  55  42 N7        29.95S
ALMA           MOSUNNY   79  56  45 W10       29.93S
ANN ARBOR      MOSUNNY   79  56  45 MISG      29.94R
BAD AXE        SUNNY     75  57  53 W8        29.91F
DETROIT CITY   MOSUNNY   79  54  41 NW13      29.92S
DETROIT        MOSUNNY   80  56  43 NW12      29.94R
FLINT          SUNNY     77  58  51 W8        29.93S
GROSSE ILE     MOSUNNY   80  56  44 W7        29.92R
HILLSDALE      CLOUDY    79  54  41 W6        29.96S
HOWELL         MOSUNNY   77  56  47 NW6       29.95S

CITY           SKY/WX    TMP DP  RH WIND       PRES   REMARKS
JACKSON        SUNNY     79  54  41 VRB6      29.95S
LANSING        MOSUNNY   79  56  45 W8        29.94F
MASON          SUNNY     79  56  45 W9        29.95S
MONROE         SUNNY     79  58  49 NW3       29.92S
MT. CLEMENS    MOSUNNY   77  56  49 NW9       29.90F
PONTIAC        MOSUNNY   77  56  48 W10       29.93S
PORT HOPE        N/A     76  59  55 W7        29.88F
PORT HURON     SUNNY     77  55  47 NW7       29.92S
TRI CITIES     SUNNY     78  62  57 W13       29.91F
YPSILANTI      SUNNY     81  59  47 NW13      29.94S
$$
MIZ043>046-050>051-056>058-064>065-071>073-077>080-192300-
SOUTHWEST LOWER MICHIGAN

CITY           SKY/WX    TMP DP  RH WIND       PRES   REMARKS
BATTLE CREEK   SUNNY     80  57  45 NW7       29.96F
BENTON HARBOR  SUNNY     76  56  49 VRB3      29.97S
BIG RAPIDS     MOSUNNY   77  55  45 W8        29.93S
COLDWATER      MOSUNNY   82  51  34 W8        29.95F
HOLLAND        SUNNY     74  62  66 SW7       29.97F
GRAND RAPIDS   MOSUNNY   78  59  51 W9        29.95S
KALAMAZOO      SUNNY     81  51  35 NW9       29.96S
MARSHALL       MOSUNNY   79  55  43 NW7       29.95S
MOUNT PLEASANT MOSUNNY   81  57  44 W5        29.91F
MUSKEGON       SUNNY     75  63  66 W10       29.96S
STURGIS        SUNNY     81  57  44 NW5       29.95S
$$
MIZ016>042-192300-
NORTHERN LOWER MICHIGAN

CITY           SKY/WX    TMP DP  RH WIND       PRES   REMARKS
ALPENA         MOSUNNY   78  60  53 W6        29.87F
BEAVER ISLAND  SUNNY     71  64  80 SW12      29.89R
BELLAIRE       SUNNY     76  61  60 W5        29.89S
CADILLAC       SUNNY     78  56  46 W9        29.93S
CHARLEVOIX     SUNNY     73  62  69 W12       29.92R
GAYLORD        SUNNY     75  57  53 W15       29.90F
HOUGHTON LAKE  MOSUNNY   77  58  51 W10       29.92S
MANISTEE       SUNNY     76  64  66 SW10      29.91S
OSCODA         MOSUNNY   75  58  56 S7        29.88S
PELLSTON       MOSUNNY   73  63  70 W8        29.89R
TRAVERSE CITY  MOSUNNY   78  59  51 W12       29.88S
LUDINGTON      SUNNY     73  63  71 SW8       29.92F
$$
MIZ007>008-015-192300-
EASTERN UPPER MICHIGAN

CITY           SKY/WX    TMP DP  RH WIND       PRES   REMARKS
KINROSS        PTSUNNY   72  63  73 W8        29.86S
MACKINAC ISLAN MOSUNNY   69  66  90 SW13      29.88R
NEWBERRY       MOSUNNY   75  61  60 NW6       29.86R
S. S. MARIE    SUNNY     74  61  63 W7        29.84S
$$
MIZ004>006-011>014-085-192300-
CENTRAL UPPER MICHIGAN

CITY           SKY/WX    TMP DP  RH WIND       PRES   REMARKS
MANISTIQUE     CLOUDY    69  63  81 SW7       29.86S
ESCANABA       PTSUNNY   78  65  63 S7        29.84R
MENOMINEE      SUNNY     81  60  48 W9        29.87S
SAWYER-GWINN   PTSUNNY   73  63  68 NE5       29.87S
$$
MIZ001>003-009>011-084-192300-
WESTERN UPPER MICHIGAN

CITY           SKY/WX    TMP DP  RH WIND       PRES   REMARKS
IRON MOUNTAIN  MOSUNNY   81  55  40 NW9       29.86S
HOUGHTON         N/A    N/A N/A N/A MISG      29.85S
COPPER HARBOR    N/A     66  57  72 N9        29.82S
IRONWOOD       PTSUNNY   76  60  57 W5        29.89S
$$

ABBREVIATIONS USED IN REMARKS
   TC - TEMPERATURE IN CELSIUS
  WCI - WIND CHILL INDEX
   HX - HEAT INDEX
  VSB - VISIBILITY





USA.gov is the U.S. government's official web portal to all federal, state and local government web resources and services.